Weather History for KSBN - February, 2012

Change the Weather History Date:

Sunday, February 12, 2012

  Actual Average Record
Temperature  
Mean Temperature 26 °F 27 °F  
Max Temperature 32 °F 34 °F 59 °F (1984)
Min Temperature 20 °F 20 °F -14 °F (1899)
Degree Days  
Heating Degree Days 39 38  
Month to date heating degree days 417 471  
Since 1 July heating degree days 3554 4119  
Cooling Degree Days 0 0  
Month to date cooling degree days 0 0  
Year to date cooling degree days 0 0  
Moisture  
Dew Point 12 °F    
Average Humidity 56    
Maximum Humidity 68    
Minimum Humidity 43    
Precipitation  
Precipitation 0.00 in 0.07 in 0.84 in (1918)
Month to date precipitation 0.25 0.77  
Year to date precipitation 3.22 3.06  
Snow  
Snow 0.00 in 0.50 in 8.00 in (1894)
Month to date snowfall 4.5 7.2  
Since 1 July snowfall 45.2 50.3  
Snow Depth -    
Sea Level Pressure  
Sea Level Pressure 30.28 in    
Wind  
Wind Speed 13 mph (West)    
Max Wind Speed 22 mph    
Max Gust Speed 29 mph    
Visibility 10 miles    
Events      
T = Trace of Precipitation, MM = Missing Value Source: NWS Daily Summary

Daily Weather History Graph

Daily Weather History Graph

Search for Another Location

Airport or City:

Trip Planner

Search our weather history database for the weather conditions in past years. The results will help you decide how hot, cold, wet, or windy it might be!

Date:

Astronomy

Feb. 12, 2012 Rise Set
Actual Time 7:45 AM EST 6:14 PM EST
Civil Twilight 7:16 AM EST 6:42 PM EST
Nautical Twilight 6:43 AM EST 7:15 PM EST
Astronomical Twilight 6:11 AM EST 7:48 PM EST
Moon No Moon Rise 9:57 AM EST (2/12)
Length of Visible Light 11h 26m
Length of Day
10h 28m
Waning Gibbous, 72% of the Moon is Illuminated
Feb 12
Waning Gibbous
Feb 14
Last Quarter
Feb 21
New
Feb 29
First Quarter
Mar 8
Full

Hourly Weather History & Observations

Time (EST) Temp. Windchill Dew Point Humidity Pressure Visibility Wind Dir Wind Speed Gust Speed Precip Events Conditions
12:34 AM 21.2 °F 7.3 °F 10.4 °F 63% 30.26 in 10.0 mi WNW 16.1 mph - N/A   Overcast
12:54 AM 21.0 °F 8.6 °F 10.9 °F 65% 30.30 in 10.0 mi WNW 12.7 mph - N/A   Overcast
1:54 AM 21.9 °F 9.2 °F 12.0 °F 66% 30.29 in 10.0 mi West 13.8 mph 23.0 mph N/A   Overcast
2:54 AM 21.9 °F 8.7 °F 12.9 °F 68% 30.30 in 10.0 mi West 15.0 mph - N/A   Overcast
3:54 AM 21.0 °F 6.2 °F 10.9 °F 65% 30.29 in 10.0 mi WNW 18.4 mph - N/A   Overcast
4:54 AM 21.9 °F 7.8 °F 12.9 °F 68% 30.28 in 10.0 mi WNW 17.3 mph - N/A   Overcast
5:54 AM 23.0 °F 9.6 °F 12.9 °F 65% 30.27 in 10.0 mi WNW 16.1 mph 23.0 mph N/A   Overcast
6:54 AM 21.9 °F 8.7 °F 12.0 °F 66% 30.27 in 10.0 mi WNW 15.0 mph 21.9 mph N/A   Mostly Cloudy
7:11 AM 21.2 °F 7.8 °F 12.2 °F 68% 30.24 in 10.0 mi WNW 15.0 mph - N/A   Scattered Clouds
7:54 AM 21.0 °F 7.1 °F 12.0 °F 68% 30.28 in 10.0 mi WNW 16.1 mph - N/A   Clear
8:54 AM 21.9 °F 9.8 °F 12.9 °F 68% 30.30 in 10.0 mi West 12.7 mph - N/A   Mostly Cloudy
9:54 AM 24.1 °F 11.5 °F 14.0 °F 65% 30.32 in 10.0 mi West 15.0 mph 21.9 mph N/A   Mostly Cloudy
10:54 AM 25.0 °F 11.7 °F 14.0 °F 63% 30.32 in 10.0 mi WNW 17.3 mph - N/A   Scattered Clouds
11:54 AM 26.1 °F 12.7 °F 14.0 °F 60% 30.32 in 10.0 mi WNW 18.4 mph 24.2 mph N/A   Clear
12:54 PM 26.1 °F 12.3 °F 12.9 °F 58% 30.30 in 10.0 mi WNW 19.6 mph 23.0 mph N/A   Clear
1:54 PM 27.0 °F 14.3 °F 12.9 °F 56% 30.28 in 10.0 mi West 17.3 mph - N/A   Clear
2:54 PM 28.9 °F 19.2 °F 12.0 °F 49% 30.28 in 10.0 mi West 11.5 mph - N/A   Clear
3:54 PM 30.9 °F 19.8 °F 12.9 °F 47% 30.27 in 10.0 mi West 16.1 mph 21.9 mph N/A   Clear
4:54 PM 32.0 °F 24.2 °F 12.0 °F 44% 30.27 in 10.0 mi West 9.2 mph - N/A   Clear
5:54 PM 30.0 °F 21.1 °F 12.0 °F 47% 30.26 in 10.0 mi West 10.4 mph - N/A   Clear
6:54 PM 25.0 °F 17.1 °F 10.9 °F 55% 30.26 in 10.0 mi West 6.9 mph - N/A   Clear
7:54 PM 25.0 °F 19.3 °F 10.0 °F 53% 30.27 in 10.0 mi SW 4.6 mph - N/A   Clear
8:54 PM 26.1 °F 18.4 °F 10.0 °F 51% 30.26 in 10.0 mi SW 6.9 mph - N/A   Clear
9:54 PM 25.0 °F 15.5 °F 12.0 °F 58% 30.25 in 10.0 mi SW 9.2 mph - N/A   Clear
10:54 PM 23.0 °F 13.1 °F 12.0 °F 63% 30.25 in 10.0 mi WSW 9.2 mph - N/A   Clear
11:54 PM 21.0 °F 13.4 °F 10.0 °F 63% 30.24 in 10.0 mi SSW 5.8 mph - N/A   Clear